Location: *
(49.9853°N, 3.5569°E)
Time: 19:49:51
(UTC+00:00)

Cosmos 1455 Rocket - Pass Details

Date: 22 September 2019
Orbit: 605 x 630 km, 82.5° (Epoch: 21 October)

Event Time Altitude Azimuth Distance (km) Brightness Sun altitude
Rises 19:42:04 0° 195° (SSW) 2,897 6.4 -19.1°
Reaches altitude 10° 19:44:17 10° 198° (SSW) 1,998 5.6 -19.4°
Maximum altitude 19:48:43 69° 282° (WNW) 678 3.4 -20.1°
Drops below altitude 10° 19:53:11 10° 6° (N) 2,022 5.9 -20.7°
Sets 19:55:27 0° 9° (N) 2,935 6.8 -21.1°
